sat.trackr.live / text

‹ back to catalog

STARLINK-34095

NORAD 63809 · 2025-092F

PAYLOAD ACTIVE UNKNOWN

§ Identity

Operator
Country
US
Launch date
2025-05-04
Launch site
AFETR
Launch vehicle
Mass (kg)
RCS (m²)

Purposes: comms

External: N2YO · Heavens-Above · Gunter

§ Orbital elements

Epoch: 2026-09-20T22:59:06.724608Z

Period
94.27 min
Inclination
43.0014°
Eccentricity
0.0001381
Mean motion
15.27588704 rev/d
Perigee alt
482.1 km
Apogee alt
484.0 km
Semi-major
6,861.2 km
B*
4.0832e-4
RAAN
150.1871°
Arg perigee
270.0487°
Mean anomaly
90.0207°
Rev number
7,847

§ Raw data

STARLINK-340951 63809U 25092F   26263.95771672  .00010994  00000+0  40832-3 0  99992 63809  43.0014 150.1871 0001381 270.0487  90.0207 15.27588704 78475

JSON: /api/v1/satellites/63809 · /tle

For live sub-satellite position, see the globe view (requires WebGL).

§ Visibility from observer

Set your observer location to see the next 7 days of passes ≥ 10°. The values pass through the URL so the page stays shareable.

No JS? Fill the form by hand. The geolocation button needs JavaScript.